Time,TemperatureF,DewpointF,PressureIn,WindDirection,WindDirectionDegrees,WindSpeedMPH,WindSpeedGustMPH,Humidity,HourlyPrecipIn,Conditions,Clouds,dailyrainin,SoftwareType,DateUTC
2013-09-24 00:00:00,62.5,35.2,29.99,South,176,2.0,4.0,36,0.00,,---,0.00,VWS V13.01,2013-09-24 07:00:00,
2013-09-24 00:30:00,62.2,37.0,29.98,South,180,4.0,8.0,39,0.00,,---,0.00,VWS V13.01,2013-09-24 07:30:00,
2013-09-24 01:00:00,63.0,35.7,29.98,SSW,192,3.0,8.0,36,0.00,,---,0.00,VWS V13.01,2013-09-24 08:00:00,
2013-09-24 01:30:00,63.4,35.3,29.99,South,189,2.0,7.0,35,0.00,,---,0.00,VWS V13.01,2013-09-24 08:30:00,
2013-09-24 02:00:00,62.6,36.7,29.99,South,175,2.0,5.0,38,0.00,,---,0.00,VWS V13.01,2013-09-24 09:00:00,
2013-09-24 02:30:00,57.4,32.0,29.99,SSE,157,1.0,3.0,38,0.00,,---,0.00,VWS V13.01,2013-09-24 09:30:00,
2013-09-24 03:00:00,55.3,33.8,29.98,SSE,154,0.0,3.0,44,0.00,,---,0.00,VWS V13.01,2013-09-24 10:00:00,
2013-09-24 03:30:00,54.8,33.2,29.98,SSE,158,1.0,5.0,44,0.00,,---,0.00,VWS V13.01,2013-09-24 10:30:00,
2013-09-24 04:00:00,54.7,35.9,29.97,SSE,155,0.0,2.0,49,0.00,,---,0.00,VWS V13.01,2013-09-24 11:00:00,
2013-09-24 04:30:00,54.7,35.4,29.99,SSE,154,0.0,3.0,48,0.00,,---,0.00,VWS V13.01,2013-09-24 11:30:00,
2013-09-24 05:00:00,54.0,36.8,29.98,SSE,161,0.0,2.0,52,0.00,,---,0.00,VWS V13.01,2013-09-24 12:00:00,
2013-09-24 05:30:00,53.4,36.7,29.99,SSE,155,0.0,2.0,53,0.00,,---,0.00,VWS V13.01,2013-09-24 12:30:00,
2013-09-24 06:00:00,53.6,38.3,29.99,SSE,153,0.0,3.0,56,0.00,,---,0.00,VWS V13.01,2013-09-24 13:00:00,
2013-09-24 06:30:00,53.6,38.8,30.01,SSE,153,0.0,0.0,57,0.00,,---,0.00,VWS V13.01,2013-09-24 13:30:00,
2013-09-24 07:00:00,53.0,37.3,29.99,SSE,155,0.0,3.0,55,0.00,,---,0.00,VWS V13.01,2013-09-24 14:00:00,
2013-09-24 07:30:00,56.5,38.1,30.00,SSE,154,0.0,0.0,50,0.00,,---,0.00,VWS V13.01,2013-09-24 14:30:00,
2013-09-24 08:01:00,60.5,36.1,30.01,South,180,3.0,3.0,40,0.00,,---,0.00,VWS V13.01,2013-09-24 15:01:00,
2013-09-24 08:30:00,63.6,34.7,30.00,ESE,119,0.0,4.0,34,0.00,,---,0.00,VWS V13.01,2013-09-24 15:30:00,
2013-09-24 09:00:00,66.8,33.5,30.02,ESE,113,1.0,4.0,29,0.00,,---,0.00,VWS V13.01,2013-09-24 16:00:00,
2013-09-24 09:30:00,70.3,34.8,30.02,ESE,109,2.0,4.0,27,0.00,,---,0.00,VWS V13.01,2013-09-24 16:30:00,
2013-09-24 10:00:00,74.1,35.0,30.01,East,101,1.0,3.0,24,0.00,,---,0.00,VWS V13.01,2013-09-24 17:00:00,
2013-09-24 10:30:00,78.1,38.4,30.00,ESE,102,0.0,5.0,24,0.00,,---,0.00,VWS V13.01,2013-09-24 17:30:00,
2013-09-24 11:00:00,82.4,38.6,29.99,ESE,103,2.0,5.0,21,0.00,,---,0.00,VWS V13.01,2013-09-24 18:00:00,
2013-09-24 11:30:00,87.0,33.8,29.96,SSW,192,5.0,15.0,15,0.00,,---,0.00,VWS V13.01,2013-09-24 18:30:00,
2013-09-24 12:00:00,88.2,31.2,29.96,SSE,154,8.0,21.0,13,0.00,,---,0.00,VWS V13.01,2013-09-24 19:00:00,
2013-09-24 12:30:00,88.9,31.8,29.95,SW,230,0.0,8.0,13,0.00,,---,0.00,VWS V13.01,2013-09-24 19:30:00,
2013-09-24 13:00:00,89.5,30.2,29.94,SW,223,0.0,0.0,12,0.00,,---,0.00,VWS V13.01,2013-09-24 20:00:00,
2013-09-24 13:30:00,89.3,30.1,29.93,SSW,202,0.0,0.0,12,0.00,,---,0.00,VWS V13.01,2013-09-24 20:30:00,
2013-09-24 14:01:00,89.2,30.0,29.91,SSW,208,0.0,0.0,12,0.00,,---,0.00,VWS V13.01,2013-09-24 21:01:00,
2013-09-24 14:30:00,89.7,32.4,29.90,SSW,201,0.0,0.0,13,0.00,,---,0.00,VWS V13.01,2013-09-24 21:30:00,
2013-09-24 15:00:00,89.7,32.4,29.90,South,184,0.0,0.0,13,0.00,,---,0.00,VWS V13.01,2013-09-24 22:00:00,
2013-09-24 15:30:00,88.6,36.7,29.89,South,170,0.0,0.0,16,0.00,,---,0.00,VWS V13.01,2013-09-24 22:30:00,
2013-09-24 16:00:00,87.2,37.1,29.88,WSW,239,0.0,0.0,17,0.00,,---,0.00,VWS V13.01,2013-09-24 23:00:00,
2013-09-24 16:30:00,85.9,36.1,29.89,NW,308,0.0,0.0,17,0.00,,---,0.00,VWS V13.01,2013-09-24 23:30:00,
2013-09-24 17:00:00,84.8,35.2,29.89,WSW,251,0.0,0.0,17,0.00,,---,0.00,VWS V13.01,2013-09-25 00:00:00,
2013-09-24 17:30:00,82.8,35.0,29.88,SSW,206,0.0,0.0,18,0.00,,---,0.00,VWS V13.01,2013-09-25 00:30:00,
2013-09-24 18:00:00,80.9,34.8,29.89,SW,214,0.0,0.0,19,0.00,,---,0.00,VWS V13.01,2013-09-25 01:00:00,
2013-09-24 18:30:00,78.7,35.5,29.89,SE,142,0.0,0.0,21,0.00,,---,0.00,VWS V13.01,2013-09-25 01:30:00,
2013-09-24 19:00:00,76.3,35.8,29.89,ESE,119,0.0,0.0,23,0.00,,---,0.00,VWS V13.01,2013-09-25 02:00:00,
2013-09-24 19:30:00,74.6,36.5,29.89,SSW,205,0.0,0.0,25,0.00,,---,0.00,VWS V13.01,2013-09-25 02:30:00,
2013-09-24 20:00:00,73.2,36.3,29.90,WNW,297,0.0,0.0,26,0.00,,---,0.00,VWS V13.01,2013-09-25 03:00:00,
2013-09-24 20:30:00,72.3,36.5,29.92,SW,217,0.0,0.0,27,0.00,,---,0.00,VWS V13.01,2013-09-25 03:30:00,
2013-09-24 21:00:00,71.3,37.4,29.91,SE,124,5.0,15.0,29,0.00,,---,0.00,VWS V13.01,2013-09-25 04:00:00,
2013-09-24 21:30:00,70.3,37.4,29.92,WNW,294,12.0,17.0,30,0.00,,---,0.00,VWS V13.01,2013-09-25 04:30:00,
2013-09-24 22:00:00,69.8,37.8,29.90,West,281,7.0,17.0,31,0.00,,---,0.00,VWS V13.01,2013-09-25 05:00:00,
2013-09-24 22:30:00,69.2,38.9,29.90,SSE,166,5.0,16.0,33,0.00,,---,0.00,VWS V13.01,2013-09-25 05:30:00,
2013-09-24 23:00:00,68.3,39.0,29.90,WNW,299,8.0,12.0,34,0.00,,---,0.00,VWS V13.01,2013-09-25 06:00:00,
2013-09-24 23:30:00,67.8,39.9,29.89,SSW,213,0.0,11.0,36,0.00,,---,0.00,VWS V13.01,2013-09-25 06:30:00,